Starlink 6347

operational
NORAD ID: 57359 Int'l Des: 2023-099 Owner: SPXS Country: US Constellation: starlink
LEOCIRCULAR

Über Starlink 6347

Beschreibung wird geladen...

Live-Position

3D-Globus wird geladen...

Nächste Überflüge

Höhenverlauf

Altitude vs Time

uPlot chart will show altitude changes over time

Zweizeiliger Elementsatz

1 57359U 23099AH 26062.58697266 .00000449 00000-0 48321-4 0 9996
2 57359 43.0032 269.5283 0001221 263.1403 96.9301 15.02534391145341
Epoch: 3. März 2026 • Age: 45 hours

Aktueller Status

Höhe 558.7 km
Geschwindigkeit 7.59 km/s
Subsatellitenpunkt 18.64°N, 173.24°E
Startdatum 16. Juli 2023
Alter 2.6 years
Typ internet

Technische Details

Klassifizierung Payload
Masse 305.00 kg
Trockenmasse 290.00 kg
Gesamtmasse 305.00 kg
Länge 0.20 m
Durchmesser 2.80 m
Spannweite 9.00 m
Form Box + pan
Hersteller SPXS
Bus-Typ Starlink
Phasenstatus In Orbit
Besitzer/Staat SPXS/US

Große Konstellationen

Loading constellations...